User: anonymous   Login
Location: *
(51.5000°N, 0.1100°W)
Time: 04:02:49
(UTC+00:00)
Language:

Cosmos 836 Rocket - Orbit

View from above orbital plane
View from above orbital plane
View from above satellite
View from above satellite

Ground track
Ground track

The orbit data is extracted from the following two-line orbital elements,

1 08924U 76061B   24194.61221812  .00000431  00000-0  15137-3 0  9994
2 08924  74.0576  39.7297 0013665  14.8738  40.1169 14.37893491514520
Epoch (UTC): 12 July 2024 14:41:35
Eccentricity: 0.0013665
inclination: 74.0576°
perigee height: 756 km
apogee height: 775 km
right ascension of ascending node: 39.7297°
argument of perigee: 14.8738°
revolutions per day: 14.37893491
mean anomaly at epoch: 40.1169°
orbit number at epoch: 51452

The dashed part of the orbit path shows where the satellite is in the earth's shadow,  

DLR